[[{"header":{"parameterUnit":"m.s-1","parameterCategory":2,"la1":30.2991,"la2":30.254,"lo1":-89.0895,"lo2":-89.0444,"dy":0.0017,"dx":0.0017,"nx":28,"ny":28,"refTime":"2026-02-03T03:00:00:Z","depth":"0","parameterNumber":2,"parameterNumberName":"U-component_of_CURRENTS"},"data":[0,0,0,0,0,0,0,0,0,0,0,0,0,0,0,0,0,0,0,0,0,0,0,0,0,0,0,0,0,0,0,0,0,0,0,0,0,0,0,0,0,0,0,0,0,0,0,0,0,0,0,0,0,0,0,0,0,0,0.383,0.383,0,0.3853,0.3853,0.3853,0.3878,0.3879,0.3879,0.3879,0.3932,0.3933,0.3934,0,0,0,0,0,0,0,0,0,0,0,0,0,0.3781,0.3782,0.383,0.383,0.3831,0.3853,0.3853,0.3853,0.3878,0.3879,0.3879,0.388,0.3932,0.3933,0.3934,0,0,0,0,0,0,0,0,0,0,0,0,0,0.3802,0.3782,0.383,0.3847,0.3848,0.3853,0.3853,0.3853,0.3878,0.3879,0.3879,0.388,0.3931,0.3933,0.3934,0.3929,0,0,0.3938,0.3939,0,0,0,0,0,0,0,0,0.3801,0.3804,0.3844,0.3845,0.3848,0.3864,0.3855,0.388,0.3878,0.3865,0.3879,0.388,0.3912,0.3915,0.3916,0.3931,0.3934,0.3939,0.3939,0.394,0.394,0,0,0,0,0,0,0,0.3799,0.3803,0.3838,0.3844,0.3846,0.3844,0.3848,0.386,0.3884,0.3867,0.3869,0.3873,0.3914,0.3914,0.3918,0.3934,0.3939,0.394,0.3941,0.3941,0.3956,0.3956,0,0,0,0,0,0,0.38,0.3801,0.3837,0.3839,0.3827,0.3845,0.3849,0.3857,0.3884,0.3888,0.3872,0.3874,0.3912,0.3916,0.392,0.3904,0.394,0.3941,0.3942,0.3957,0.3956,0.3956,0,0,0,0,0,0,0.3799,0.3803,0.3836,0.3821,0.3825,0.3845,0.3854,0.3857,0.3853,0.3888,0.3893,0.3865,0.3912,0.3917,0.3921,0.3907,0.3942,0.3943,0.3957,0.3956,0.3956,0.388,0,0,0,0,0,0,0.3797,0.3802,0.3801,0.3821,0.3826,0.3826,0.3854,0.3857,0.3856,0.3858,0.3883,0.3889,0.3913,0.3918,0.3922,0.3909,0.3944,0.3958,0.3957,0.3956,0.3883,0.3877,0.3871,0,0,0,0,0,0.3795,0.3787,0.3801,0.3804,0.3826,0.3825,0.3826,0.3842,0.3855,0.3843,0.3863,0.3888,0.3916,0.3918,0.3923,0.3911,0.3958,0.3957,0.3956,0.3885,0.3878,0.3871,0,0,0,0,0,0,0.376,0.379,0.3805,0.3805,0.3811,0.383,0.3819,0.3833,0.3838,0.3841,0.3876,0.3882,0.3886,0.3906,0.3908,0.3914,0.3944,0.3943,0.3888,0.3881,0.3876,0.3864,0.3946,0,0,0,0,0,0.3754,0.3758,0.3781,0.3778,0.3779,0.3797,0.3797,0.3808,0.382,0.3823,0.3841,0.3864,0.3885,0.3888,0.391,0.3902,0.3944,0.3901,0.3895,0.3889,0.3884,0.3939,0.3938,0.3952,0.3952,0.3952,0,0,0.3739,0.3755,0.3757,0.3771,0.3776,0.3768,0.3798,0.379,0.3782,0.3828,0.3814,0.3844,0.3881,0.388,0.3882,0.3892,0.3907,0.3888,0.3883,0.3881,0.3938,0.3937,0.3936,0.3951,0.3951,0.3952,0,0,0.3712,0.3724,0.372,0.372,0.3727,0.3735,0.373,0.3742,0.3743,0.3737,0.3776,0.3789,0.381,0.3831,0.3848,0.382,0.388,0.3833,0.3785,0.3838,0.3837,0.3837,0.3884,0.3889,0.3823,0.3823,0.3822,0,0.3697,0.3697,0.3713,0.3705,0.3699,0.3717,0.3702,0.3701,0.3711,0.3709,0.3722,0.3761,0.3786,0.3797,0.3789,0.3805,0.385,0.3806,0.383,0.3831,0.3832,0.3881,0.3887,0.3819,0.3819,0.382,0.382,0,0.3671,0.3664,0.3654,0.3655,0.3645,0.3631,0.3636,0.3623,0.3629,0.3639,0.3646,0.368,0.3707,0.3715,0.3742,0.3761,0.3795,0.3822,0.3846,0.3826,0.3879,0.3886,0.3813,0.3815,0.3816,0.3817,0,0,0.3673,0.3645,0.3643,0.3626,0.3618,0.3606,0.3581,0.3572,0.356,0.3568,0.3564,0.359,0.3619,0.364,0.3678,0.371,0.3753,0.3763,0.3768,0.3805,0.3876,0.3796,0.3797,0.3793,0.3794,0.3795,0.3908,0,0.3654,0.3618,0.3612,0.357,0.3551,0.3546,0.3522,0.3512,0.3514,0.3511,0.3542,0.3559,0.3588,0.3609,0.3642,0.3738,0.3772,0.372,0.3894,0.3898,0.3826,0.3802,0.3607,0.3682,0.3916,0.3917,0.3918,0,0.3651,0.3621,0.3577,0.3528,0.3519,0.3495,0.3462,0.3445,0.3445,0.3451,0.3468,0.3505,0.3549,0.3581,0.3711,0.3684,0.3769,0.3834,0.3841,0.3796,0.3831,0.3741,0.3688,0.348,0.3931,0.393,0.3929,0,0.3657,0.3603,0.3561,0.3545,0.3493,0.3469,0.3445,0.343,0.3413,0.3426,0.3428,0.3482,0.3524,0.3628,0.3741,0.3747,0.3888,0.3919,0.3922,0.3919,0.3799,0.3782,0.3557,0.4008,0.4008,0.4007,0.4007,0,0.3656,0.3629,0.3556,0.3535,0.3479,0.3454,0.3411,0.3398,0.3385,0.3367,0.3406,0.3416,0.3543,0.3627,0.3737,0.3838,0.3891,0.3904,0.3935,0.3765,0.3744,0.3598,0.3559,0.4012,0.4011,0.401,0.4009,0,0.3695,0.3645,0.3594,0.3514,0.3485,0.3453,0.3386,0.3352,0.3354,0.3338,0.3344,0.3392,0.3497,0.361,0.3783,0.3824,0.381,0.3964,0.3744,0.3743,0.3525,0.3493,0.334,0.3296,0.3982,0.3981,0.3979,0,0.3721,0.3694,0.3585,0.353,0.3494,0.3432,0.338,0.3347,0.3315,0.332,0.3311,0.339,0.3441,0.3626,0.3712,0.3857,0.3755,0.3734,0.3691,0.3456,0.3446,0.3368,0.3339,0.3518,0.3513,0.3509,0.3505,0,0.3759,0.3713,0.365,0.3533,0.3457,0.3376,0.3307,0.3283,0.325,0.3244,0.325,0.3296,0.3426,0.3443,0.3581,0.3654,0.3488,0.3655,0.3468,0.309,0.2938,0.2928,0.3508,0.347,0.3473,0.3476,0.3478,0.3479,0.3779,0.3734,0.3619,0.3509,0.3413,0.3311,0.325,0.3208,0.3164,0.3138,0.3194,0.3209,0.3176,0.3338,0.3374,0.316,0.3309,0.3042,0.3039,0.2995,0.2861,0.3346,0.3303,0.3305,0.3307,0.3309,0.3311,0,0.3762,0.3683,0.3589,0.3433,0.3312,0.3271,0.3173,0.311,0.3064,0.3073,0.3084,0.295,0.2874,0.282,0.2625,0.252,0.2507,0.2415,0.2224,0.2253,0.2705,0.2584,0.231,0.231,0.231,0.231,0.2311,0.2311,0.3731,0.3619,0.355,0.3341,0.324,0.3068,0.3005,0.2951,0.2926,0.2791,0.2688,0.2673,0.2435,0.2134,0.1864,0.1861,0.1754,0.1672,0.1766,0.1991,0.2047,0.21,0.1967,0.1568,0.1568,0.1202,0.1198,0.1196]},{"header":{"parameterUnit":"m.s-1","parameterCategory":2,"la1":30.2991,"la2":30.254,"lo1":-89.0895,"lo2":-89.0444,"dy":0.0017,"dx":0.0017,"nx":28,"ny":28,"refTime":"2026-02-03T03:00:00:Z","depth":"0","parameterNumber":3,"parameterNumberName":"V-component_of_CURRENTS"},"data":[0,0,0,0,0,0,0,0,0,0,0,0,0,0,0,0,0,0,0,0,0,0,0,0,0,0,0,0,0,0,0,0,0,0,0,0,0,0,0,0,0,0,0,0,0,0,0,0,0,0,0,0,0,0,0,0,0,0,-0.0248,-0.0248,0,-0.0209,-0.0209,-0.0208,-0.0208,-0.0209,-0.021,-0.021,-0.0128,-0.0126,-0.0123,0,0,0,0,0,0,0,0,0,0,0,0,0,-0.0282,-0.0282,-0.0248,-0.0248,-0.0248,-0.0209,-0.0209,-0.0208,-0.0208,-0.0209,-0.021,-0.021,-0.0129,-0.0126,-0.0123,0,0,0,0,0,0,0,0,0,0,0,0,0,-0.0256,-0.0282,-0.0248,-0.0244,-0.0243,-0.021,-0.0209,-0.0208,-0.0208,-0.0209,-0.021,-0.0211,-0.013,-0.0126,-0.0122,-0.0077,0,0,-0.0109,-0.0108,0,0,0,0,0,0,0,0,-0.0258,-0.0255,-0.0245,-0.0244,-0.0244,-0.0216,-0.0191,-0.0163,-0.0208,-0.022,-0.021,-0.0211,-0.0154,-0.0148,-0.0137,-0.0073,-0.007,-0.0109,-0.0107,-0.0105,-0.0104,0,0,0,0,0,0,0,-0.026,-0.0257,-0.0231,-0.0245,-0.0244,-0.023,-0.0228,-0.0185,-0.018,-0.0219,-0.0219,-0.0217,-0.0153,-0.0141,-0.0135,-0.0069,-0.0109,-0.0105,-0.0103,-0.0101,0.0038,0.0039,0,0,0,0,0,0,-0.0268,-0.0258,-0.0233,-0.023,-0.0255,-0.0229,-0.0227,-0.0223,-0.0181,-0.0177,-0.0216,-0.0217,-0.0148,-0.014,-0.0132,-0.008,-0.0105,-0.0101,-0.0098,0.0036,0.0038,0.0039,0,0,0,0,0,0,-0.0269,-0.0266,-0.0234,-0.0245,-0.024,-0.0228,-0.0223,-0.0221,-0.0211,-0.018,-0.0175,-0.0209,-0.0148,-0.0138,-0.009,-0.0077,-0.0099,-0.0095,0.0035,0.0037,0.0038,0.0026,0,0,0,0,0,0,-0.027,-0.0267,-0.0265,-0.0245,-0.024,-0.0217,-0.0223,-0.022,-0.0209,-0.021,-0.0172,-0.0165,-0.0148,-0.0096,-0.0086,-0.0072,-0.0092,0.0033,0.0036,0.0038,0.0025,0.0027,0.0029,0,0,0,0,0,-0.0272,-0.0275,-0.0265,-0.0262,-0.0238,-0.0217,-0.0212,-0.0206,-0.0208,-0.0201,-0.0171,-0.0167,-0.0075,-0.0091,-0.0079,-0.0064,0.0032,0.0035,0.0038,0.0024,0.0026,0.0029,0,0,0,0,0,0,-0.0299,-0.0275,-0.0264,-0.0262,-0.0239,-0.0218,-0.0216,-0.0203,-0.0174,-0.0175,-0.0145,-0.0136,-0.0091,-0.0069,-0.0088,-0.0017,-0.0022,-0.0017,-0.0037,-0.0034,-0.0032,-0.0048,-0.0088,0,0,0,0,0,-0.0299,-0.0292,-0.0264,-0.0263,-0.0253,-0.023,-0.022,-0.0211,-0.0185,-0.0174,-0.0143,-0.0107,-0.0068,-0.0046,-0.001,0.0036,0.0049,0.0053,0.0055,0.0056,0.0053,0.009,0.0094,0.0048,0.0048,0.0048,0,0,-0.031,-0.0297,-0.0293,-0.0267,-0.0253,-0.0234,-0.0227,-0.0214,-0.0195,-0.0166,-0.013,-0.0096,-0.0053,-0.0009,0.0013,0.0009,0.0077,0.006,0.006,0.0056,0.0093,0.0097,0.0101,0.005,0.0049,0.0049,0,0,-0.0331,-0.0315,-0.0313,-0.0291,-0.0265,-0.0244,-0.0239,-0.0206,-0.019,-0.0145,-0.0121,-0.008,-0.0019,0.0012,0.0036,0.0076,0.0086,0.0089,0.0088,0.0124,0.0127,0.013,0.0148,0.0153,0.009,0.009,0.009,0,-0.0346,-0.0333,-0.031,-0.0298,-0.0279,-0.0248,-0.0233,-0.0208,-0.0161,-0.0135,-0.0137,-0.004,-0.0011,0.0049,0.0055,0.0078,0.0095,0.0071,0.0124,0.0128,0.0131,0.0149,0.0155,0.009,0.009,0.009,0.009,0,-0.0358,-0.0342,-0.0341,-0.0309,-0.0286,-0.0269,-0.0227,-0.0196,-0.0169,-0.0136,-0.0073,-0.0029,0.0028,0.0044,0.0059,0.0108,0.011,0.012,0.0111,0.0135,0.0152,0.0158,0.0089,0.009,0.009,0.009,0,0,-0.0405,-0.0357,-0.0356,-0.0329,-0.0285,-0.0263,-0.0228,-0.0174,-0.0135,-0.0097,-0.0042,0.0009,0.0034,0.0063,0.0094,0.0119,0.0151,0.0125,0.0127,0.0129,0.022,0.0235,0.0243,0.017,0.0171,0.0172,0.022,0,-0.0418,-0.0393,-0.0364,-0.0327,-0.0304,-0.0255,-0.0216,-0.0164,-0.0114,-0.0051,-0.0008,0.0055,0.0042,0.008,0.0099,0.0158,0.0167,0.0136,0.0208,0.021,0.021,0.0251,0.0294,0.0342,0.0226,0.0227,0.0227,0,-0.0436,-0.041,-0.0381,-0.031,-0.0295,-0.0269,-0.0185,-0.0142,-0.0057,-0.0015,0.0038,0.0083,0.0141,0.0122,0.0193,0.0176,0.0185,0.0208,0.0211,0.0233,0.0236,0.0302,0.0357,0.029,0.0237,0.0236,0.0235,0,-0.0466,-0.0417,-0.0389,-0.0368,-0.0292,-0.0264,-0.0218,-0.0135,-0.0072,0.0013,0.0074,0.013,0.0195,0.0208,0.0254,0.0229,0.0329,0.0305,0.0315,0.0316,0.037,0.0374,0.0359,0.0326,0.0326,0.0326,0.0326,0,-0.048,-0.0456,-0.04,-0.0382,-0.0326,-0.0276,-0.0201,-0.0145,-0.0046,0.0051,0.0091,0.0187,0.0221,0.0289,0.0282,0.0336,0.0352,0.0322,0.0337,0.0368,0.037,0.0329,0.0284,0.0328,0.0328,0.0327,0.0327,0,-0.0507,-0.0477,-0.0435,-0.0365,-0.0338,-0.0298,-0.0184,-0.0113,-0.0034,0.0095,0.013,0.0253,0.0356,0.038,0.044,0.0403,0.0426,0.0433,0.0458,0.0474,0.0397,0.0351,0.0387,0.0409,0.0444,0.0445,0.0446,0,-0.0511,-0.0496,-0.0427,-0.0387,-0.0353,-0.0282,-0.0211,-0.0118,-0.0031,0.0152,0.0226,0.036,0.0493,0.058,0.0559,0.056,0.0497,0.0544,0.0491,0.0406,0.0367,0.0344,0.0359,0.0557,0.0559,0.056,0.0561,0,-0.0505,-0.0489,-0.0448,-0.0371,-0.0305,-0.0217,-0.0117,-0.0046,0.0092,0.0211,0.0393,0.0514,0.0628,0.0705,0.0697,0.0667,0.0529,0.0567,0.049,0.0463,0.0431,0.0456,0.049,0.0572,0.0571,0.057,0.057,0.0569,-0.0491,-0.0459,-0.04,-0.032,-0.0245,-0.0132,-0.0036,0.008,0.0235,0.0467,0.0526,0.0766,0.0795,0.0829,0.0767,0.0636,0.0622,0.0567,0.0522,0.0509,0.0523,0.0566,0.0655,0.0654,0.0654,0.0653,0.0653,0,-0.0445,-0.0398,-0.0333,-0.0221,-0.0112,-0.0084,0.0062,0.018,0.0378,0.0597,0.0775,0.0964,0.0972,0.091,0.0726,0.0605,0.058,0.0526,0.0494,0.0516,0.057,0.0564,0.0625,0.0625,0.0625,0.0625,0.0625,0.0625,-0.0408,-0.0334,-0.0293,-0.0103,-0.0012,0.0158,0.0257,0.0399,0.0568,0.0862,0.1069,0.12,0.1125,0.0764,0.0537,0.0493,0.0434,0.0424,0.0385,0.0379,0.0379,0.0378,0.0361,0.0379,0.0378,0.0385,0.0384,0.0383]}],[{"header":{"parameterUnit":"m.s-1","parameterCategory":2,"la1":30.2991,"la2":30.254,"lo1":-89.0895,"lo2":-89.0444,"dy":0.0017,"dx":0.0017,"nx":28,"ny":28,"refTime":"2026-02-03T03:00:00:Z","depth":"2","parameterNumber":2,"parameterNumberName":"U-component_of_CURRENTS"},"data":[0,0,0,0,0,0,0,0,0,0,0,0,0,0,0,0,0,0,0,0,0,0,0,0,0,0,0,0,0,0,0,0,0,0,0,0,0,0,0,0,0,0,0,0,0,0,0,0,0,0,0,0,0,0,0,0,0,0,0.0686,0.0687,0,0.068,0.068,0.068,0.066,0.066,0.066,0.0659,0.0683,0.0684,0.0685,0,0,0,0,0,0,0,0,0,0,0,0,0,0.0673,0.0674,0.0686,0.0687,0.0687,0.068,0.068,0.068,0.066,0.066,0.066,0.0659,0.0683,0.0684,0.0685,0,0,0,0,0,0,0,0,0,0,0,0,0,0.0673,0.0674,0.0686,0.0677,0.0677,0.068,0.068,0.068,0.066,0.066,0.0659,0.0659,0.0682,0.0683,0.0685,0.0702,0,0,0.0689,0.0689,0,0,0,0,0,0,0,0,0.0673,0.0673,0.0679,0.0678,0.0677,0.0672,0.0684,0.0689,0.066,0.0665,0.0659,0.0659,0.0683,0.0685,0.0682,0.0703,0.0704,0.0689,0.069,0.069,0.0691,0,0,0,0,0,0,0,0.0673,0.0673,0.0682,0.0679,0.0678,0.0671,0.067,0.0685,0.0676,0.0664,0.0663,0.0665,0.0683,0.068,0.0682,0.0704,0.0689,0.069,0.0691,0.0691,0.0906,0.091,0,0,0,0,0,0,0.0678,0.0673,0.0683,0.0682,0.0676,0.0672,0.0671,0.0673,0.0675,0.0675,0.0666,0.0665,0.0678,0.0681,0.0683,0.0785,0.069,0.0692,0.0692,0.0901,0.0907,0.0912,0,0,0,0,0,0,0.0678,0.0679,0.0683,0.0679,0.0679,0.0672,0.0675,0.0673,0.0677,0.0676,0.0676,0.0673,0.0678,0.0681,0.0738,0.0783,0.0692,0.0693,0.0895,0.0903,0.0909,0.0937,0,0,0,0,0,0,0.0677,0.0679,0.0688,0.0679,0.068,0.0695,0.0675,0.0673,0.0679,0.0678,0.0682,0.0683,0.0678,0.0736,0.0739,0.0783,0.0694,0.0889,0.0898,0.0907,0.093,0.0945,0.0957,0,0,0,0,0,0.0677,0.0692,0.0688,0.069,0.069,0.0696,0.0696,0.0688,0.068,0.0689,0.0717,0.0684,0.0798,0.074,0.0743,0.0788,0.0884,0.0896,0.0906,0.0924,0.0942,0.0957,0,0,0,0,0,0,0.07,0.0691,0.0687,0.0701,0.0703,0.0694,0.0701,0.0697,0.0721,0.0725,0.0723,0.0728,0.0806,0.0809,0.0746,0.0891,0.0845,0.0857,0.0859,0.0875,0.0888,0.0909,0.0696,0,0,0,0,0,0.0707,0.0711,0.0707,0.072,0.072,0.0712,0.0715,0.0712,0.0728,0.0736,0.0748,0.0791,0.0854,0.087,0.0918,0.0971,0.1003,0.1019,0.1032,0.1042,0.1071,0.1176,0.1199,0.0948,0.0948,0.0948,0,0,0.0722,0.0717,0.0722,0.0725,0.0721,0.0729,0.0713,0.0722,0.0745,0.0738,0.0785,0.0833,0.0887,0.0964,0.0999,0.0964,0.1131,0.1056,0.1064,0.1088,0.119,0.1213,0.1234,0.0956,0.0954,0.0953,0,0,0.074,0.0746,0.0747,0.0748,0.0748,0.075,0.0757,0.076,0.0779,0.0831,0.0862,0.095,0.0998,0.1066,0.1104,0.1228,0.1208,0.1242,0.1302,0.1402,0.1422,0.144,0.1489,0.1511,0.1234,0.1235,0.1235,0,0.0759,0.0755,0.0753,0.0752,0.0757,0.0762,0.0769,0.0797,0.0827,0.0866,0.0857,0.1026,0.1061,0.1192,0.1248,0.1254,0.1288,0.1214,0.1413,0.1432,0.145,0.1496,0.152,0.1237,0.1237,0.1237,0.1236,0,0.0767,0.0769,0.0773,0.0773,0.0785,0.0794,0.0822,0.0858,0.0887,0.0924,0.1058,0.1136,0.1235,0.1276,0.1295,0.1457,0.143,0.1417,0.1351,0.1476,0.1518,0.1542,0.1241,0.124,0.1239,0.1239,0,0,0.0796,0.0779,0.0782,0.0775,0.0793,0.0801,0.0861,0.092,0.0973,0.1052,0.1144,0.1299,0.1348,0.1404,0.1453,0.1553,0.1704,0.1541,0.1545,0.1552,0.1894,0.1594,0.1591,0.171,0.1716,0.172,0.186,0,0.0802,0.0791,0.0793,0.0806,0.0802,0.0833,0.0887,0.0952,0.1021,0.1118,0.1248,0.1361,0.1391,0.1453,0.1566,0.1686,0.1776,0.1666,0.1807,0.1811,0.1499,0.1613,0.1553,0.1648,0.1884,0.1888,0.1891,0,0.0812,0.0796,0.0798,0.0807,0.0812,0.0834,0.0917,0.0965,0.111,0.117,0.1312,0.1404,0.1602,0.1592,0.1853,0.1776,0.1852,0.1926,0.1932,0.1664,0.1557,0.1574,0.1683,0.1931,0.1928,0.1925,0.1922,0,0.0821,0.0809,0.0807,0.0808,0.0826,0.0852,0.0879,0.099,0.1049,0.1215,0.129,0.1502,0.1626,0.1784,0.1939,0.1913,0.2187,0.2155,0.1957,0.1935,0.1919,0.1883,0.2336,0.2336,0.2336,0.2336,0.2335,0,0.0828,0.0831,0.0805,0.0803,0.0817,0.0839,0.0898,0.0959,0.1077,0.1182,0.1319,0.1458,0.1689,0.1859,0.1975,0.2025,0.2213,0.1993,0.1964,0.1919,0.1884,0.216,0.2137,0.2341,0.234,0.2339,0.2338,0,0.0853,0.0835,0.0825,0.0819,0.0819,0.0831,0.0873,0.0925,0.1033,0.1177,0.124,0.147,0.1678,0.1847,0.2107,0.2029,0.2132,0.2098,0.1983,0.1932,0.1805,0.1784,0.1891,0.1882,0.1874,0.1867,0.1862,0,0.0867,0.0859,0.0828,0.0814,0.0809,0.082,0.0837,0.0904,0.0966,0.1197,0.1276,0.1502,0.162,0.1798,0.1827,0.1892,0.2029,0.1751,0.166,0.1804,0.1768,0.1758,0.1748,0.1691,0.1685,0.168,0.1675,0,0.0887,0.0876,0.0858,0.0825,0.0815,0.0807,0.0837,0.0885,0.101,0.1134,0.1338,0.1438,0.155,0.1572,0.1528,0.1561,0.1714,0.1623,0.1933,0.1719,0.1601,0.1567,0.1569,0.1629,0.1634,0.1637,0.1639,0.1641,0.0906,0.0897,0.0868,0.0851,0.084,0.0846,0.0896,0.0932,0.1041,0.1211,0.1316,0.1402,0.1376,0.1263,0.1264,0.1261,0.1332,0.1293,0.132,0.135,0.1207,0.1071,0.0976,0.0976,0.0977,0.0978,0.0978,0,0.0944,0.094,0.09,0.0905,0.0933,0.0914,0.0953,0.0984,0.1143,0.1145,0.1268,0.114,0.1084,0.112,0.1013,0.087,0.0986,0.0862,0.1086,0.1129,0.1168,0.1026,0.0743,0.0742,0.0742,0.0741,0,0,0.0959,0.0953,0.0933,0.1003,0.1048,0.1089,0.1144,0.1135,0.1115,0.1068,0.1059,0.1062,0.1037,0.0893,0.0841,0.0803,0.0976,0.077,0.0963,0.1274,0.1313,0.141,0.1233,0,0,0,0,0]},{"header":{"parameterUnit":"m.s-1","parameterCategory":2,"la1":30.2991,"la2":30.254,"lo1":-89.0895,"lo2":-89.0444,"dy":0.0017,"dx":0.0017,"nx":28,"ny":28,"refTime":"2026-02-03T03:00:00:Z","depth":"2","parameterNumber":3,"parameterNumberName":"V-component_of_CURRENTS"},"data":[0,0,0,0,0,0,0,0,0,0,0,0,0,0,0,0,0,0,0,0,0,0,0,0,0,0,0,0,0,0,0,0,0,0,0,0,0,0,0,0,0,0,0,0,0,0,0,0,0,0,0,0,0,0,0,0,0,0,0.0306,0.0306,0,0.0261,0.026,0.026,0.0171,0.017,0.0168,0.0166,0.0072,0.0071,0.007,0,0,0,0,0,0,0,0,0,0,0,0,0,0.0345,0.0345,0.0306,0.0306,0.0305,0.0261,0.026,0.026,0.0172,0.017,0.0167,0.0165,0.0072,0.0071,0.007,0,0,0,0,0,0,0,0,0,0,0,0,0,0.0318,0.0345,0.0307,0.0255,0.025,0.0261,0.026,0.026,0.0172,0.017,0.0167,0.0164,0.0072,0.0071,0.007,0.0118,0,0,0.0066,0.0066,0,0,0,0,0,0,0,0,0.032,0.0317,0.0263,0.0259,0.0253,0.0218,0.0239,0.0209,0.0173,0.0203,0.0166,0.0163,0.0117,0.0112,0.0112,0.0114,0.011,0.0066,0.0066,0.0065,0.0065,0,0,0,0,0,0,0,0.0322,0.0319,0.029,0.0263,0.0256,0.0244,0.0237,0.0234,0.0176,0.02,0.0193,0.0187,0.0114,0.0114,0.0109,0.0108,0.0066,0.0065,0.0065,0.0064,0.0134,0.0137,0,0,0,0,0,0,0.0327,0.0321,0.0291,0.0288,0.0279,0.0245,0.0237,0.0233,0.0177,0.0166,0.019,0.0183,0.0117,0.0111,0.0106,0.0164,0.0065,0.0064,0.0063,0.0132,0.0135,0.0137,0,0,0,0,0,0,0.0328,0.0325,0.0293,0.0302,0.0297,0.0247,0.0243,0.0233,0.0208,0.017,0.0157,0.0171,0.0115,0.0107,0.0113,0.0159,0.0063,0.0062,0.0129,0.0133,0.0136,0.0277,0,0,0,0,0,0,0.0329,0.0326,0.0321,0.0303,0.0296,0.0304,0.0245,0.0234,0.021,0.02,0.015,0.014,0.0112,0.0116,0.0112,0.0155,0.0061,0.0125,0.013,0.0135,0.0269,0.0285,0.0299,0,0,0,0,0,0.0331,0.0341,0.0321,0.0317,0.0293,0.0305,0.0302,0.0257,0.0211,0.022,0.0192,0.014,0.0143,0.0117,0.0112,0.0156,0.0123,0.0129,0.0135,0.0262,0.0282,0.0298,0,0,0,0,0,0,0.0353,0.0333,0.031,0.0311,0.0309,0.0289,0.0286,0.0257,0.0241,0.0223,0.0175,0.0166,0.0194,0.0157,0.0129,0.0192,0.0124,0.013,0.0223,0.0241,0.0256,0.0288,0.006,0,0,0,0,0,0.0359,0.0358,0.0344,0.0345,0.0343,0.0313,0.0306,0.0284,0.0269,0.0256,0.0229,0.0208,0.0223,0.0213,0.0217,0.0246,0.0207,0.027,0.0285,0.0298,0.0323,0.031,0.0326,0.0157,0.0156,0.0156,0,0,0.0367,0.0355,0.0353,0.0349,0.0336,0.0369,0.0302,0.0301,0.0336,0.0252,0.0283,0.0262,0.0245,0.029,0.0297,0.0255,0.0326,0.0305,0.0317,0.0335,0.0318,0.0334,0.0348,0.016,0.016,0.0159,0,0,0.0399,0.0374,0.039,0.04,0.0392,0.0394,0.0394,0.0382,0.0379,0.0413,0.0374,0.039,0.0382,0.0401,0.0405,0.0505,0.0413,0.0484,0.0577,0.0565,0.0578,0.059,0.0556,0.0564,0.0482,0.0482,0.0482,0,0.0404,0.0427,0.04,0.0429,0.0449,0.0411,0.0456,0.047,0.0466,0.049,0.0437,0.0476,0.0453,0.0532,0.0566,0.0543,0.0496,0.0509,0.0584,0.0594,0.0604,0.0566,0.0573,0.049,0.0489,0.0488,0.0487,0,0.0462,0.0481,0.0495,0.0527,0.0552,0.0581,0.0604,0.0632,0.0618,0.063,0.0687,0.0668,0.068,0.0686,0.0655,0.0724,0.0657,0.061,0.0537,0.0629,0.0584,0.0588,0.05,0.0498,0.0495,0.0494,0,0,0.047,0.0524,0.0527,0.0566,0.0605,0.0638,0.0718,0.0786,0.0834,0.0839,0.09,0.094,0.0895,0.0899,0.0859,0.0859,0.0884,0.076,0.0755,0.0725,0.0827,0.0773,0.077,0.0827,0.0829,0.083,0.0765,0,0.052,0.0595,0.0619,0.0716,0.0762,0.0788,0.0872,0.0931,0.0955,0.1008,0.1011,0.1036,0.0985,0.0967,0.0976,0.0907,0.0901,0.0905,0.0744,0.074,0.0679,0.0777,0.0689,0.0624,0.0769,0.0769,0.077,0,0.0568,0.0616,0.0699,0.0818,0.0841,0.0888,0.1004,0.1073,0.1151,0.1163,0.1192,0.1169,0.1198,0.1109,0.1069,0.1057,0.0962,0.0904,0.0898,0.0807,0.0695,0.0556,0.0624,0.0775,0.0775,0.0774,0.0774,0,0.0579,0.0685,0.075,0.0783,0.0899,0.094,0.1,0.1094,0.1153,0.1219,0.124,0.1279,0.125,0.119,0.1083,0.1053,0.1012,0.0944,0.0819,0.0812,0.069,0.067,0.0915,0.0915,0.0916,0.0916,0.0916,0,0.0628,0.0685,0.0742,0.0774,0.0864,0.094,0.1028,0.1097,0.1179,0.1253,0.1277,0.1333,0.1258,0.1228,0.1128,0.1001,0.1038,0.0868,0.081,0.0736,0.0722,0.0812,0.0801,0.0913,0.0914,0.0914,0.0915,0,0.0628,0.0666,0.0737,0.0831,0.0852,0.0899,0.0996,0.1073,0.1143,0.1227,0.1237,0.1335,0.1301,0.1228,0.1127,0.103,0.093,0.0864,0.078,0.0716,0.072,0.0718,0.0722,0.072,0.0719,0.0717,0.0716,0,0.0642,0.0668,0.0729,0.0741,0.076,0.0829,0.0889,0.1008,0.1087,0.1244,0.1293,0.1308,0.1321,0.1189,0.1019,0.0837,0.0882,0.0666,0.0618,0.0767,0.071,0.0709,0.0709,0.0498,0.0495,0.0493,0.0491,0,0.066,0.0646,0.0689,0.0688,0.0717,0.0813,0.0895,0.097,0.1131,0.1228,0.1381,0.1399,0.1245,0.106,0.0812,0.0703,0.0697,0.0611,0.0797,0.057,0.0553,0.0498,0.0505,0.047,0.0472,0.0474,0.0475,0.0476,0.0636,0.0646,0.0643,0.0649,0.0684,0.0781,0.0872,0.0999,0.1153,0.1306,0.1394,0.1381,0.1153,0.078,0.0618,0.0468,0.0498,0.0431,0.0439,0.045,0.0446,0.0428,0.0318,0.0319,0.0321,0.0321,0.0322,0,0.0621,0.0609,0.0614,0.0645,0.0694,0.0708,0.0875,0.0996,0.1177,0.1252,0.1353,0.1127,0.0887,0.0678,0.0367,0.0207,0.0207,0.0212,0.0224,0.0243,0.0261,0.025,0.0069,0.0068,0.0068,0.0068,0,0,0.0609,0.0599,0.0601,0.0639,0.0658,0.0764,0.0866,0.1014,0.1097,0.1195,0.1158,0.111,0.0823,0.0564,0.0351,0.0202,0.0273,0.0186,0.0389,0.0442,0.0462,0.0371,0.0373,0,0,0,0,0]}],[{"header":{"parameterUnit":"m.s-1","parameterCategory":2,"la1":30.2991,"la2":30.254,"lo1":-89.0895,"lo2":-89.0444,"dy":0.0017,"dx":0.0017,"nx":28,"ny":28,"refTime":"2026-02-03T03:00:00:Z","depth":"4","parameterNumber":2,"parameterNumberName":"U-component_of_CURRENTS"},"data":[0,0,0,0,0,0,0,0,0,0,0,0,0,0,0,0,0,0,0,0,0,0,0,0,0,0,0,0,0,0,0,0,0,0,0,0,0,0,0,0,0,0,0,0,0,0,0,0,0,0,0,0,0,0,0,0,0,0,-0.0416,-0.0416,0,-0.0397,-0.0397,-0.0397,-0.0393,-0.0393,-0.0393,-0.0393,-0.038,-0.038,-0.0379,0,0,0,0,0,0,0,0,0,0,0,0,0,-0.0442,-0.0442,-0.0416,-0.0416,-0.0416,-0.0397,-0.0397,-0.0397,-0.0393,-0.0393,-0.0393,-0.0393,-0.038,-0.038,-0.0379,0,0,0,0,0,0,0,0,0,0,0,0,0,-0.0429,-0.0442,-0.0416,-0.0411,-0.041,-0.0397,-0.0397,-0.0397,-0.0393,-0.0393,-0.0393,-0.0393,-0.038,-0.038,-0.0379,-0.0374,0,0,-0.0377,-0.0377,0,0,0,0,0,0,0,0,-0.0429,-0.0428,-0.0412,-0.0411,-0.041,-0.0396,-0.0401,-0.0389,-0.0393,-0.04,-0.0393,-0.0393,-0.0385,-0.0384,-0.0382,-0.0373,-0.0373,-0.0377,-0.0377,-0.0377,-0.0377,0,0,0,0,0,0,0,-0.043,-0.0429,-0.041,-0.0411,-0.041,-0.0406,-0.0405,-0.0399,-0.0394,-0.04,-0.0399,-0.0395,-0.0385,-0.0383,-0.0382,-0.0373,-0.0377,-0.0377,-0.0377,-0.0376,-0.0301,-0.0299,0,0,0,0,0,0,-0.0431,-0.0429,-0.041,-0.0409,-0.0419,-0.0406,-0.0404,-0.0402,-0.0394,-0.0392,-0.0395,-0.0395,-0.0384,-0.0382,-0.0381,-0.0308,-0.0377,-0.0376,-0.0376,-0.0302,-0.03,-0.0298,0,0,0,0,0,0,-0.0431,-0.0429,-0.0411,-0.0418,-0.0415,-0.0405,-0.0403,-0.0401,-0.0401,-0.039,-0.0389,-0.0397,-0.0384,-0.0382,-0.0369,-0.031,-0.0376,-0.0375,-0.0304,-0.0302,-0.0299,-0.0205,0,0,0,0,0,0,-0.0432,-0.043,-0.0432,-0.0418,-0.0415,-0.0404,-0.0402,-0.0401,-0.0398,-0.0398,-0.0391,-0.039,-0.0384,-0.037,-0.0369,-0.0311,-0.0375,-0.0306,-0.0303,-0.03,-0.021,-0.02,-0.0191,0,0,0,0,0,-0.0433,-0.0432,-0.0432,-0.043,-0.0417,-0.0403,-0.0402,-0.0395,-0.0398,-0.0397,-0.0387,-0.039,-0.0348,-0.0369,-0.0368,-0.0308,-0.0308,-0.0304,-0.03,-0.0215,-0.0202,-0.0191,0,0,0,0,0,0,-0.0444,-0.0431,-0.0431,-0.0426,-0.0416,-0.0402,-0.0401,-0.0398,-0.039,-0.0389,-0.0383,-0.0381,-0.034,-0.0349,-0.0372,-0.0278,-0.0323,-0.0318,-0.0258,-0.0246,-0.0236,-0.0245,-0.0374,0,0,0,0,0,-0.0448,-0.0445,-0.0431,-0.0429,-0.0425,-0.0415,-0.0411,-0.0404,-0.0393,-0.039,-0.0368,-0.0349,-0.0323,-0.0308,-0.0291,-0.0253,-0.033,-0.0211,-0.0201,-0.0192,-0.0199,-0.0319,-0.0322,-0.0286,-0.0286,-0.0286,0,0,-0.0453,-0.0444,-0.0444,-0.0431,-0.0426,-0.0397,-0.0413,-0.0404,-0.0359,-0.0389,-0.0323,-0.0319,-0.0309,-0.0253,-0.0234,-0.0253,-0.0231,-0.0187,-0.018,-0.0192,-0.0316,-0.032,-0.0324,-0.0284,-0.0284,-0.0284,0,0,-0.0453,-0.0454,-0.0448,-0.0434,-0.042,-0.0397,-0.0394,-0.0366,-0.0337,-0.0273,-0.0284,-0.0274,-0.0194,-0.02,-0.0187,-0.0125,-0.0181,-0.0083,-0.0032,-0.0147,-0.0153,-0.0158,-0.0221,-0.0233,-0.0071,-0.0071,-0.0071,0,-0.0458,-0.0437,-0.0445,-0.0427,-0.0389,-0.0392,-0.0348,-0.0324,-0.0284,-0.0259,-0.0233,-0.0185,-0.0172,-0.0159,-0.0099,-0.0104,-0.0159,-0.0074,-0.0139,-0.0146,-0.0154,-0.0217,-0.0232,-0.0066,-0.0067,-0.0067,-0.0068,0,-0.0442,-0.0421,-0.0415,-0.0376,-0.0342,-0.0311,-0.0263,-0.0223,-0.0165,-0.0143,-0.0101,-0.0102,-0.0076,-0.0052,-0.0029,-0.0056,-0.0072,-0.0122,-0.0176,-0.0153,-0.0219,-0.0236,-0.0059,-0.0061,-0.0062,-0.0063,0,0,-0.0442,-0.0407,-0.0401,-0.0351,-0.03,-0.0257,-0.0185,-0.0118,-0.0093,-0.004,-0.0022,0.0051,0.0022,0.0031,0.0017,-0.0055,-0.0115,-0.0073,-0.0081,-0.0146,-0.0329,-0.0184,-0.019,-0.0176,-0.018,-0.0182,-0.0341,0,-0.0412,-0.0357,-0.0333,-0.0236,-0.0186,-0.0139,-0.0067,-0.0017,0.002,0.0025,0.0001,0.0017,0.006,0.0068,0.0007,-0.0111,-0.0161,-0.0065,-0.0333,-0.034,-0.0226,-0.0206,-0.0192,-0.0354,-0.0358,-0.0361,-0.0363,0,-0.0383,-0.034,-0.0243,-0.0136,-0.0108,-0.0025,0.0085,0.0133,0.0114,0.0128,0.0099,0.0055,-0.0006,0.0002,-0.0175,-0.011,-0.0178,-0.0274,-0.0285,-0.0201,-0.0228,-0.0393,-0.0396,-0.0393,-0.0391,-0.0389,-0.0387,0,-0.0349,-0.0261,-0.016,-0.0124,-0.0018,0.008,0.0155,0.0185,0.0188,0.0163,0.0109,0.0041,-0.0039,-0.0144,-0.0262,-0.022,-0.0512,-0.0505,-0.0446,-0.0437,-0.0569,-0.0562,-0.0638,-0.0638,-0.0638,-0.0637,-0.0637,0,-0.0302,-0.0231,-0.0116,-0.0062,0.0084,0.0151,0.0247,0.0293,0.0248,0.0183,0.0157,0.0059,-0.0084,-0.0252,-0.0317,-0.0427,-0.0553,-0.0431,-0.0473,-0.0515,-0.0501,-0.0579,-0.057,-0.0643,-0.0642,-0.0641,-0.064,0,-0.0282,-0.0226,-0.0107,0.0041,0.0104,0.0221,0.0308,0.0305,0.0291,0.0179,0.0161,0.002,-0.0108,-0.0265,-0.0487,-0.0504,-0.063,-0.064,-0.0659,-0.0703,-0.0452,-0.0436,-0.0557,-0.0553,-0.055,-0.0548,-0.0545,0,-0.0267,-0.0206,-0.004,0.0031,0.0125,0.0267,0.0311,0.0349,0.0286,0.015,0.005,-0.0069,-0.0149,-0.0353,-0.0473,-0.0585,-0.0577,-0.0657,-0.0518,-0.0417,-0.0448,-0.0436,-0.0425,-0.054,-0.054,-0.0539,-0.0538,0,-0.0236,-0.0176,-0.0089,0.0035,0.0147,0.0214,0.0273,0.0229,0.0181,0.0129,0.0015,-0.0038,-0.0192,-0.0276,-0.0377,-0.0465,-0.0613,-0.0623,-0.0628,-0.0497,-0.0399,-0.0429,-0.0422,-0.0527,-0.0529,-0.053,-0.053,0,-0.0214,-0.0161,-0.0074,0.0049,0.0117,0.0132,0.0199,0.0168,0.0145,0.001,-0.0028,-0.0121,-0.0189,-0.0219,-0.0335,-0.0368,-0.0319,-0.0335,-0.0354,-0.0367,-0.0227,-0.0068,-0.013,0,0,0,0,0,-0.0184,-0.0161,-0.0085,0.0026,0.0055,0.0099,0.0111,0.0133,0.0071,0.0022,0.002,-0.0063,-0.0111,-0.0162,-0.0149,-0.0274,-0.0368,-0.0266,-0.0406,-0.0467,-0.0479,-0.0328,0,0,0,0,0,0,-0.0172,-0.0117,-0.0102,-0.007,-0.0029,0.0004,0.0014,0.0006,-0.0002,-0.004,-0.0041,-0.005,-0.0088,-0.0104,-0.0148,-0.0165,-0.0248,-0.0293,-0.0293,-0.046,-0.0471,-0.0481,-0.033,0,0,0,0,0]},{"header":{"parameterUnit":"m.s-1","parameterCategory":2,"la1":30.2991,"la2":30.254,"lo1":-89.0895,"lo2":-89.0444,"dy":0.0017,"dx":0.0017,"nx":28,"ny":28,"refTime":"2026-02-03T03:00:00:Z","depth":"4","parameterNumber":3,"parameterNumberName":"V-component_of_CURRENTS"},"data":[0,0,0,0,0,0,0,0,0,0,0,0,0,0,0,0,0,0,0,0,0,0,0,0,0,0,0,0,0,0,0,0,0,0,0,0,0,0,0,0,0,0,0,0,0,0,0,0,0,0,0,0,0,0,0,0,0,0,0.0416,0.0416,0,0.039,0.0389,0.0389,0.0407,0.0408,0.0409,0.041,0.0448,0.0448,0.0448,0,0,0,0,0,0,0,0,0,0,0,0,0,0.0421,0.0421,0.0416,0.0416,0.0415,0.039,0.0389,0.0389,0.0407,0.0408,0.0409,0.041,0.0448,0.0448,0.0448,0,0,0,0,0,0,0,0,0,0,0,0,0,0.0407,0.0421,0.0416,0.0423,0.0424,0.039,0.0389,0.0388,0.0406,0.0408,0.0409,0.0411,0.0448,0.0448,0.0448,0.0418,0,0,0.0448,0.0448,0,0,0,0,0,0,0,0,0.0408,0.0407,0.0422,0.0422,0.0423,0.0405,0.0405,0.0402,0.0406,0.0411,0.041,0.0412,0.044,0.044,0.0428,0.042,0.0422,0.0448,0.0448,0.0448,0.0448,0,0,0,0,0,0,0,0.0409,0.0408,0.0403,0.0422,0.0422,0.0407,0.0407,0.0404,0.0417,0.041,0.0412,0.0412,0.044,0.0428,0.043,0.0422,0.0448,0.0448,0.0448,0.0448,0.0357,0.0355,0,0,0,0,0,0,0.0418,0.0409,0.0404,0.0403,0.0422,0.0406,0.0406,0.0407,0.0415,0.0418,0.0411,0.0413,0.0427,0.0429,0.0431,0.0383,0.0448,0.0448,0.0449,0.036,0.0357,0.0354,0,0,0,0,0,0,0.0418,0.0418,0.0405,0.0407,0.0405,0.0405,0.0406,0.0406,0.0405,0.0415,0.0419,0.0412,0.0428,0.0431,0.0425,0.0386,0.0449,0.0449,0.0363,0.0359,0.0356,0.0297,0,0,0,0,0,0,0.0419,0.0418,0.0422,0.0408,0.0405,0.0387,0.0405,0.0405,0.0403,0.0406,0.0417,0.0421,0.043,0.0425,0.0425,0.0387,0.0449,0.0366,0.0361,0.0357,0.0302,0.0291,0.0283,0,0,0,0,0,0.0419,0.0415,0.0422,0.0422,0.041,0.0386,0.0383,0.0387,0.0402,0.0393,0.0398,0.0422,0.0395,0.0423,0.0424,0.0386,0.0368,0.0362,0.0357,0.0306,0.0293,0.0283,0,0,0,0,0,0,0.0416,0.0416,0.0424,0.042,0.0407,0.039,0.0385,0.0387,0.0381,0.0396,0.0404,0.0407,0.0379,0.0388,0.0419,0.034,0.0379,0.0373,0.034,0.0328,0.0319,0.032,0.0449,0,0,0,0,0,0.0418,0.042,0.041,0.0408,0.0403,0.0395,0.0388,0.0393,0.0386,0.0386,0.0396,0.0389,0.035,0.0349,0.0333,0.0305,0.0327,0.0273,0.0263,0.0255,0.0253,0.0235,0.0225,0.0336,0.0336,0.0336,0,0,0.0417,0.0418,0.0419,0.0408,0.0401,0.0379,0.0394,0.0388,0.0363,0.0391,0.0374,0.0364,0.0334,0.0291,0.0279,0.0302,0.0239,0.0248,0.0242,0.0244,0.0229,0.0218,0.0209,0.0332,0.0333,0.0333,0,0,0.0407,0.0416,0.041,0.0396,0.0391,0.0379,0.0378,0.0371,0.0361,0.0343,0.0333,0.0297,0.0285,0.0232,0.0203,0.0129,0.0186,0.013,0.009,0.0072,0.0064,0.0056,0.0095,0.0092,0.0129,0.0128,0.0128,0,0.0408,0.0403,0.0401,0.0384,0.0372,0.0377,0.0356,0.0331,0.0325,0.0296,0.0338,0.025,0.024,0.0129,0.0108,0.0105,0.0141,0.0141,0.0062,0.0055,0.0049,0.009,0.0087,0.0125,0.0125,0.0126,0.0126,0,0.0385,0.0383,0.0376,0.0358,0.0333,0.0326,0.0292,0.0272,0.0275,0.0247,0.0175,0.0155,0.0108,0.0076,0.0078,-0.0002,0.0055,0.0053,0.01,0.0035,0.0082,0.008,0.012,0.0121,0.0122,0.0123,0,0,0.0394,0.0369,0.0371,0.0358,0.0328,0.0307,0.0246,0.0184,0.0133,0.0126,0.0056,-0.0018,-0.0004,-0.0037,-0.0053,-0.0077,-0.0085,-0.0015,-0.0015,0.004,-0.0063,-0.0079,-0.0081,-0.0079,-0.008,-0.0082,-0.0001,0,0.0386,0.0362,0.0341,0.0307,0.0288,0.0253,0.0189,0.0127,0.0085,0.0022,-0.0036,-0.0082,-0.0059,-0.0063,-0.0094,-0.0097,-0.0095,-0.0103,-0.0022,-0.0019,-0.0014,-0.0088,-0.0086,-0.0003,-0.0003,-0.0003,-0.0003,0,0.0373,0.0362,0.0347,0.028,0.0266,0.0266,0.0168,0.0108,-0.0008,-0.0043,-0.0106,-0.0137,-0.0194,-0.0145,-0.0162,-0.0151,-0.0098,-0.0091,-0.0087,-0.0085,-0.0042,0.0068,-0.0006,-0.0006,-0.0005,-0.0005,-0.0005,0,0.0387,0.0352,0.0353,0.034,0.0274,0.0276,0.0247,0.013,0.0045,-0.0039,-0.0101,-0.0171,-0.0187,-0.0166,-0.013,-0.0128,-0.0123,-0.0123,-0.0091,-0.0087,-0.0062,-0.0056,-0.0118,-0.0118,-0.0118,-0.0119,-0.0119,0,0.0379,0.037,0.0398,0.0402,0.04,0.0338,0.0298,0.0233,0.0105,-0.0014,-0.0078,-0.0169,-0.0187,-0.0204,-0.0144,-0.0117,-0.0118,-0.0109,-0.009,-0.0086,-0.0083,-0.0061,-0.0055,-0.0115,-0.0116,-0.0117,-0.0117,0,0.0385,0.0396,0.04,0.0402,0.0426,0.0441,0.0382,0.0288,0.0198,0.0047,0.0025,-0.0145,-0.0172,-0.0182,-0.0159,-0.0142,-0.0106,-0.0078,-0.0036,-0.0013,-0.0046,-0.0044,-0.0064,-0.0064,-0.0065,-0.0065,-0.0065,0,0.0377,0.0392,0.0451,0.0494,0.0539,0.0557,0.0517,0.0394,0.0252,0.0052,-0.0058,-0.0129,-0.0217,-0.0165,-0.0184,-0.0099,-0.0087,-0.0045,-0.0101,-0.0071,-0.0051,-0.0049,-0.0047,-0.0066,-0.0066,-0.0066,-0.0066,0,0.0352,0.0406,0.0413,0.0544,0.0584,0.0512,0.0456,0.0386,0.0171,0.0074,-0.0074,-0.0109,-0.0174,-0.0175,-0.0109,-0.0054,-0.0081,-0.0049,-0.0049,-0.0101,-0.0073,-0.0052,-0.005,-0.0067,-0.0067,-0.0067,-0.0067,0,0.0344,0.036,0.043,0.0532,0.0604,0.0525,0.0455,0.0313,0.0182,-0.0033,-0.0054,-0.0111,-0.0164,-0.0152,-0.0096,-0.0056,-0.007,-0.004,-0.0041,-0.004,-0.0084,-0.0049,-0.0033,0,0,0,0,0,0.0327,0.0335,0.0408,0.0466,0.055,0.0569,0.0416,0.0284,0.0134,0.005,-0.0004,-0.0043,-0.0044,-0.008,-0.0037,-0.014,-0.0085,-0.0096,-0.0053,-0.0074,-0.0072,-0.0135,0,0,0,0,0,0,0.0297,0.0349,0.0374,0.0449,0.0521,0.0472,0.0415,0.0238,0.0161,0.0077,0.0087,0.0015,0.0019,-0.0,0.0004,-0.0011,0.0025,-0.0123,-0.0122,-0.0075,-0.0073,-0.0072,-0.0136,0,0,0,0,0]}]]